Salisbury, MD

7:24 PM EST on February 06, 2016 (GMT -0500)
Salisbury-Ocean City Wicomico Regional

Weather History for KSBY - November, 2013

Change the Weather History Date:

Monday, November 4, 2013

  Actual Average Record
Temperature  
Mean Temperature 44 °F 52 °F  
Max Temperature 54 °F 63 °F 80 °F (1974)
Min Temperature 33 °F 41 °F 23 °F (1951)
Degree Days  
Heating Degree Days 21 13  
Month to date heating degree days 36 52  
Since 1 July heating degree days 224 365  
Cooling Degree Days 0 0  
Month to date cooling degree days 8 0  
Year to date cooling degree days 1628 1150  
Moisture  
Dew Point 28 °F    
Average Humidity 53    
Maximum Humidity 70    
Minimum Humidity 35    
Precipitation  
Precipitation 0.00 in 0.11 in 1.25 in (2004)
Month to date precipitation T 0.46  
Year to date precipitation 44.13 39.00  
Snow  
Snow 0.00 in 0.00 in T in (1910)
Month to date snowfall 0.0 0.0  
Since 1 July snowfall 0.0 0.0  
Snow Depth 0.00 in    
Sea Level Pressure  
Sea Level Pressure 30.56 in    
Wind  
Wind Speed 7 mph (North)    
Max Wind Speed 15 mph    
Max Gust Speed 22 mph    
Visibility 10 miles    
Events      
T = Trace of Precipitation, MM = Missing Value Source: NWS Daily Summary

Daily Weather History Graph

Daily Weather History Graph

Search for Another Location

Airport or City:

Trip Planner

Search our weather history database for the weather conditions in past years. The results will help you decide how hot, cold, wet, or windy it might be!

Date:

Astronomy

Nov. 04, 2013 Rise Set
Actual Time 6:31 AM EST 4:58 PM EST
Civil Twilight 6:04 AM EST 5:26 PM EST
Nautical Twilight 5:32 AM EST 5:57 PM EST
Astronomical Twilight 5:01 AM EST 6:28 PM EST
Moon 7:38 AM EST (11/4) 6:02 PM EST (11/4)
Length of Visible Light 11h 22m
Length of Day
10h 27m
New Moon, 2% of the Moon is Illuminated
Nov 4
New Moon
Nov 10
First Quarter
Nov 17
Full
Nov 25
Last Quarter
Dec 2
New

Hourly Weather History & Observations

Time (EST) Temp. Windchill Dew Point Humidity Pressure Visibility Wind Dir Wind Speed Gust Speed Precip Events Conditions
12:54 AM 39.9 °F 35.1 °F 27.0 °F 60% 30.45 in 10.0 mi North 6.9 mph - N/A   Clear
1:54 AM 37.9 °F 33.5 °F 26.1 °F 62% 30.46 in 10.0 mi North 5.8 mph - N/A   Clear
2:54 AM 36.0 °F 30.3 °F 26.1 °F 67% 30.48 in 10.0 mi NNW 6.9 mph - N/A   Clear
3:54 AM 36.0 °F 31.1 °F 25.0 °F 64% 30.51 in 10.0 mi NNW 5.8 mph - N/A   Clear
4:54 AM 35.1 °F 28.6 °F 25.0 °F 67% 30.53 in 10.0 mi NNW 8.1 mph - N/A   Clear
5:54 AM 34.0 °F 28.0 °F 24.1 °F 67% 30.53 in 10.0 mi NNW 6.9 mph - N/A   Clear
6:54 AM 34.0 °F 28.8 °F 25.0 °F 70% 30.55 in 10.0 mi NW 5.8 mph - N/A   Clear
7:54 AM 37.9 °F 31.5 °F 25.0 °F 60% 30.58 in 10.0 mi NNW 9.2 mph - N/A   Clear
8:54 AM 43.0 °F 37.2 °F 27.0 °F 53% 30.57 in 10.0 mi North 10.4 mph 18.4 mph N/A   Clear
9:54 AM 48.0 °F - 28.9 °F 48% 30.58 in 10.0 mi North 11.5 mph 19.6 mph N/A   Clear
10:54 AM 51.1 °F - 28.0 °F 41% 30.59 in 10.0 mi NNW 8.1 mph - N/A   Clear
11:54 AM 52.0 °F - 27.0 °F 38% 30.58 in 10.0 mi ENE 8.1 mph 16.1 mph N/A   Clear
12:54 PM 52.0 °F - 28.0 °F 40% 30.56 in 10.0 mi NNE 8.1 mph 20.7 mph N/A   Clear
1:54 PM 53.1 °F - 26.1 °F 35% 30.56 in 10.0 mi ENE 8.1 mph - N/A   Clear
2:54 PM 51.1 °F - 28.0 °F 41% 30.57 in 10.0 mi NE 10.4 mph - N/A   Clear
3:54 PM 50.0 °F - 30.0 °F 46% 30.59 in 10.0 mi NNE 9.2 mph - N/A   Clear
4:54 PM 48.0 °F - 32.0 °F 54% 30.60 in 10.0 mi North 6.9 mph - N/A   Mostly Cloudy
5:54 PM 44.1 °F 41.5 °F 32.0 °F 63% 30.58 in 10.0 mi North 4.6 mph - N/A   Clear
6:54 PM 43.0 °F 38.8 °F 32.0 °F 65% 30.59 in 10.0 mi North 6.9 mph - N/A   Clear
7:54 PM 42.1 °F 38.4 °F 30.9 °F 65% 30.58 in 10.0 mi NNE 5.8 mph - N/A   Clear
8:54 PM 41.0 °F 39.0 °F 30.9 °F 67% 30.60 in 10.0 mi North 3.5 mph - N/A   Clear
9:54 PM 41.0 °F 37.1 °F 32.0 °F 70% 30.61 in 10.0 mi NNW 5.8 mph - N/A   Clear
10:54 PM 42.1 °F - 32.0 °F 67% 30.59 in 10.0 mi Calm Calm - N/A   Clear
11:54 PM 42.1 °F - 33.1 °F 70% 30.59 in 10.0 mi Calm Calm - N/A   Clear